GW0047 Weather Reports


time (UTC)temp
C
wind
direction
speed
KPH
gust
KPH
rain 1hr
cm
rain 24hr
cm
rain mn
cm
humidity
%
barometer
mb
20260510093729 10 84 0.0 3.2 0.00 0.36 0.00 96 1011.8
20260510093235 11 87 0.0 4.8 0.00 0.36 0.00 96 1011.9
20260510092908 11 88 1.6 4.8 0.00 0.36 0.00 96 1011.8
20260510092827 11 88 0.0 4.8 0.00 0.36 0.00 96 1011.9
20260510091229 11 65 1.6 6.4 0.00 0.36 0.00 96 1011.9
20260510090729 10 103 3.2 6.4 0.00 0.36 0.00 96 1011.9
20260510090603 10 109 3.2 6.4 0.00 0.36 0.00 96 1011.8
20260510090143 10 117 3.2 6.4 0.00 0.36 0.00 96 1011.9
20260510085231 10 83 3.2 6.4 0.00 0.36 0.00 96 1011.9
20260510084729 10 98 1.6 8.0 0.00 0.36 0.00 96 1012.0
20260510084230 10 116 1.6 8.0 0.00 0.36 0.00 96 1012.0
20260510083729 10 80 3.2 9.7 0.00 0.36 0.00 96 1012.0
20260510083646 10 123 3.2 9.7 0.00 0.36 0.00 96 1011.9
20260510082730 10 112 3.2 9.7 0.00 0.36 0.00 96 1011.9
20260510082230 10 116 3.2 9.7 0.00 0.36 0.00 96 1012.0
20260510081730 10 104 1.6 3.2 0.00 0.36 0.00 96 1012.2
20260510081230 10 92 1.6 4.8 0.00 0.36 0.00 96 1012.1
20260510080735 10 90 1.6 4.8 0.00 0.36 0.00 96 1012.2
20260510080229 10 106 1.6 4.8 0.00 0.36 0.00 96 1012.3
20260510075730 10 124 1.6 4.8 0.00 0.36 0.00 96 1012.3
20260510075229 10 58 0.0 3.2 0.00 0.36 0.00 96 1012.2
20260510074832 10 34 0.0 3.2 0.00 0.36 0.00 96 1012.4
20260510074805 10 34 0.0 3.2 0.00 0.36 0.00 96 1012.3
20260510073844 10 28 1.6 1.6 0.00 0.36 0.00 96 1012.5
20260510072214 10 355 1.6 12.9 0.00 0.36 0.00 95 1012.6
20260510072148 10 351 3.2 12.9 0.00 0.36 0.00 95 1012.6
20260510071212 10 330 3.2 12.9 0.00 0.36 0.00 95 1012.3
20260510070710 10 315 1.6 12.9 0.00 0.36 0.00 96 1012.5
20260510070212 10 85 0.0 1.6 0.00 0.36 0.00 96 1011.9
20260510065715 10 85 0.0 1.6 0.00 0.36 0.00 96 1011.8
20260510065202 10 85 0.0 1.6 0.00 0.36 0.00 96 1011.9
20260510064710 10 85 0.0 0.0 0.00 0.36 0.00 96 1011.9
20260510064204 10 85 0.0 0.0 0.00 0.36 0.00 96 1011.8
20260510063707 10 85 0.0 3.2 0.00 0.36 0.00 96 1011.9
20260510063602 10 85 0.0 3.2 0.00 0.36 0.00 95 1011.9
20260510062710 10 85 0.0 3.2 0.00 0.36 0.00 95 1012.1
20260510062206 10 85 0.0 3.2 0.00 0.36 0.00 96 1012.0
20260510061709 9 49 0.0 0.0 0.00 0.36 0.00 95 1012.2
20260510061202 9 49 0.0 6.4 0.00 0.36 0.00 95 1012.1
20260510060710 9 49 0.0 6.4 0.00 0.36 0.00 95 1012.1
20260510060206 9 49 0.0 6.4 0.00 0.36 0.00 95 1012.3
20260510055712 9 349 1.6 6.4 0.00 0.36 0.00 95 1012.3
20260510055202 9 350 1.6 6.4 0.00 0.36 0.00 95 1012.5
20260510055048 9 65 1.6 3.2 0.00 0.36 0.00 95 1012.5
20260510054206 8 65 0.0 3.2 0.00 0.36 0.00 95 1012.1
20260510050452 9 65 0.0 0.0 0.00 0.36 0.00 94 1011.7
20260510050210 9 65 0.0 0.0 0.00 0.36 0.00 94 1011.7
20260510045205 9 76 0.0 0.0 0.00 0.36 0.00 94 1011.6
20260510044708 9 69 0.0 0.0 0.00 0.36 0.00 94 1011.8
20260510044407 9 66 0.0 0.0 0.00 0.36 0.00 94 1011.8
20260510043940 10 65 0.0 1.6 0.00 0.36 0.00 94 1011.8
20260510043750 9 65 0.0 1.6 0.00 0.36 0.00 94 1011.8
20260510040158 10 65 0.0 0.0 0.00 0.36 0.00 94 1011.8
20260510035709 10 65 0.0 0.0 0.00 0.36 0.36 94 1011.8
20260510004622 12 165 0.0 1.6 0.00 0.36 0.36 86 1010.8
20260510004348 13 170 0.0 1.6 0.00 0.36 0.36 85 1010.7
20260509234101 15 164 1.6 9.7 0.00 0.36 0.36 79 1010.2
20260509233609 15 168 1.6 9.7 0.00 0.36 0.36 78 1010.2
20260509233325 15 169 3.2 9.7 0.00 0.36 0.36 78 1010.2
20260509233034 15 155 3.2 9.7 0.00 0.36 0.36 77 1010.1
20260509232453 15 166 3.2 8.0 0.00 0.36 0.36 77 1010.1
20260509231733 16 224 3.2 6.4 0.00 0.36 0.36 76 1010.1
20260509230550 16 158 1.6 6.4 0.00 0.36 0.36 77 1010.1
20260509230046 16 136 1.6 4.8 0.00 0.36 0.36 76 1010.2
20260509230001 16 127 1.6 4.8 0.00 0.36 0.36 75 1010.1
20260509225500 16 90 0.0 4.8 0.00 0.36 0.36 76 1010.1
20260509224538 16 101 1.6 4.8 0.00 0.36 0.36 76 1010.2
20260509224039 16 101 1.6 4.8 0.00 0.36 0.36 76 1010.1
20260509223537 16 5 1.6 4.8 0.00 0.36 0.36 77 1010.1
20260509223037 16 355 1.6 4.8 0.00 0.36 0.36 78 1010.1
20260509222537 16 355 1.6 4.8 0.00 0.36 0.36 79 1010.2
20260509222036 15 269 1.6 8.0 0.00 0.36 0.36 81 1010.3
20260509221535 15 305 1.6 8.0 0.00 0.36 0.36 82 1010.4
20260509221034 15 261 1.6 8.0 0.00 0.36 0.36 82 1010.3
20260509220532 15 225 1.6 8.0 0.00 0.36 0.36 82 1010.4
20260509220036 14 0 1.6 6.4 0.00 0.36 0.36 82 1010.4
20260509215537 14 282 1.6 4.8 0.00 0.36 0.36 83 1010.5
20260509215459 14 0 1.6 4.8 0.00 0.36 0.36 83 1010.4
20260509214530 14 0 1.6 6.4 0.00 0.36 0.36 84 1010.3
20260509214028 14 0 1.6 6.4 0.00 0.36 0.36 83 1010.3
20260509213652 14 238 1.6 6.4 0.00 0.36 0.36 83 1010.3
20260509212510 14 240 3.2 9.7 0.00 0.36 0.36 84 1010.3
20260509212007 13 259 3.2 8.0 0.00 0.36 0.36 85 1010.3
20260509211515 13 231 3.2 4.8 0.00 0.36 0.36 86 1010.5
20260509211005 13 277 3.2 6.4 0.00 0.36 0.36 87 1010.6
20260509210507 13 310 3.2 6.4 0.00 0.36 0.36 87 1010.7
20260509210006 13 227 3.2 9.7 0.00 0.36 0.36 88 1010.8
20260509205505 13 242 3.2 9.7 0.00 0.36 0.36 88 1010.7
20260509205002 13 250 3.2 11.3 0.00 0.36 0.36 88 1010.8
20260509204501 13 296 4.8 11.3 0.00 0.36 0.36 88 1010.8
20260509204004 13 265 3.2 8.0 0.00 0.36 0.36 89 1011.0
20260509203506 13 303 3.2 8.0 0.00 0.36 0.36 89 1011.0
20260509203004 13 280 3.2 8.0 0.00 0.36 0.36 89 1010.9
20260509202501 13 246 3.2 8.0 0.00 0.36 0.36 89 1010.9
20260509202002 13 265 3.2 6.4 0.03 0.36 0.36 89 1010.9
20260509201650 13 275 1.6 6.4 0.03 0.36 0.36 90 1010.9
20260509200533 12 242 1.6 4.8 0.03 0.36 0.36 90 1010.7
20260509200037 12 0 1.6 4.8 0.05 0.36 0.36 90 1010.8
20260509195521 12 303 1.6 4.8 0.05 0.36 0.36 90 1010.9
20260509195014 12 236 1.6 4.8 0.08 0.36 0.36 90 1010.9
20260509194604 12 243 1.6 3.2 0.08 0.36 0.36 91 1011.0
20260509194017 12 225 1.6 3.2 0.10 0.36 0.36 91 1011.0
20260509193502 12 0 0.0 4.8 0.10 0.36 0.36 91 1011.2
20260509193353 13 219 0.0 4.8 0.10 0.36 0.36 92 1011.3
20260509192912 12 189 1.6 4.8 0.10 0.36 0.36 92 1011.2
20260509192324 12 176 1.6 4.8 0.08 0.33 0.33 91 1011.3
20260509191503 12 155 1.6 4.8 0.08 0.33 0.33 91 1011.5
20260509191002 12 172 1.6 6.4 0.08 0.33 0.33 91 1011.6
20260509190502 12 184 1.6 6.4 0.10 0.33 0.33 91 1012.0
20260509190309 12 182 1.6 12.9 0.08 0.30 0.30 90 1011.8
20260509185502 12 213 1.6 12.9 0.08 0.30 0.28 90 1012.4
20260509185002 12 190 3.2 12.9 0.05 0.28 0.28 89 1012.4
20260509184504 12 242 3.2 12.9 0.05 0.28 0.28 89 1012.1
20260509184001 12 137 1.6 8.0 0.05 0.25 0.25 90 1012.4
20260509183506 12 234 1.6 8.0 0.05 0.25 0.25 90 1012.4
20260509183002 12 211 1.6 8.0 0.05 0.25 0.25 90 1012.4
20260509182506 12 219 3.2 8.0 0.08 0.25 0.25 90 1012.2
20260509182002 12 255 3.2 8.0 0.10 0.25 0.25 90 1012.2
20260509181506 12 237 3.2 8.0 0.10 0.25 0.25 90 1012.3
20260509181006 12 253 3.2 8.0 0.13 0.25 0.23 90 1012.4
20260509180501 12 224 3.2 8.0 0.13 0.23 0.23 89 1012.3
20260509180005 12 200 3.2 6.4 0.15 0.23 0.23 90 1012.2
20260509175501 12 217 1.6 6.4 0.18 0.23 0.23 90 1012.0
20260509175004 13 211 1.6 4.8 0.18 0.23 0.23 90 1011.9
20260509174509 13 286 1.6 4.8 0.18 0.23 0.23 89 1011.9
20260509174008 13 284 1.6 4.8 0.15 0.20 0.20 89 1012.0
20260509173502 13 227 1.6 4.8 0.18 0.20 0.20 89 1012.1
20260509173005 13 227 1.6 4.8 0.18 0.20 0.20 89 1012.0
20260509172943 13 245 3.2 6.4 0.15 0.18 0.18 88 1012.0
20260509172004 13 252 3.2 6.4 0.15 0.15 0.15 87 1011.7
20260509171502 13 212 1.6 6.4 0.15 0.15 0.15 87 1011.7
20260509171228 13 296 3.2 12.9 0.13 0.13 0.10 87 1011.9
20260509170514 13 286 3.2 12.9 0.10 0.10 0.08 87 1012.0
20260509170012 13 279 4.8 12.9 0.08 0.08 0.08 87 1012.1
20260509165003 13 301 4.8 12.9 0.05 0.05 0.05 86 1012.2
20260509164501 14 247 4.8 12.9 0.05 0.05 0.05 86 1012.1
20260509164002 14 325 3.2 11.3 0.05 0.05 0.05 86 1012.3
20260509163917 14 256 3.2 9.7 0.03 0.03 0.03 85 1012.2
20260509163011 14 264 3.2 9.7 0.03 0.03 0.03 85 1012.2
20260509162722 14 277 4.8 14.5 0.03 0.03 0.03 84 1012.2
20260509162001 14 257 4.8 14.5 0.00 0.00 0.00 84 1012.2
20260509160553 15 224 4.8 12.9 0.00 0.00 0.00 83 1012.4
20260509155002 14 279 4.8 11.3 0.00 0.00 0.00 81 1012.4
20260509154730 14 229 4.8 11.3 0.00 0.00 0.00 81 1012.5
20260509154001 14 258 3.2 9.7 0.00 0.00 0.00 81 1012.5
20260509153502 14 239 3.2 9.7 0.00 0.00 0.00 81 1012.6
20260509153002 14 230 3.2 9.7 0.00 0.00 0.00 81 1012.5
20260509152505 14 0 3.2 8.0 0.00 0.00 0.00 81 1012.4
20260509152002 14 235 3.2 9.7 0.00 0.00 0.00 81 1012.6
20260509151505 14 265 3.2 9.7 0.00 0.00 0.00 80 1012.5
20260509151001 14 280 3.2 9.7 0.00 0.00 0.00 80 1012.3
20260509150929 14 269 3.2 6.4 0.00 0.00 0.00 80 1012.4
20260509150002 14 225 3.2 8.0 0.00 0.00 0.00 79 1012.3
20260509145501 14 250 1.6 8.0 0.00 0.00 0.00 79 1012.3
20260509145002 14 238 1.6 8.0 0.00 0.00 0.00 79 1012.2
20260509144501 14 244 1.6 8.0 0.00 0.00 0.00 80 1012.3
20260509144005 14 243 3.2 8.0 0.00 0.00 0.00 80 1012.4
20260509143504 14 252 3.2 8.0 0.00 0.00 0.00 80 1012.5
20260509143004 14 252 1.6 8.0 0.00 0.00 0.00 81 1012.5
20260509142506 14 295 3.2 8.0 0.00 0.00 0.00 80 1012.4
20260509142006 14 272 3.2 8.0 0.00 0.00 0.00 80 1012.4
20260509141502 14 248 1.6 4.8 0.00 0.00 0.00 80 1012.4
20260509141003 14 220 1.6 4.8 0.00 0.00 0.00 80 1012.4
20260509140501 13 269 1.6 4.8 0.00 0.00 0.00 80 1012.4
20260509140003 13 0 1.6 4.8 0.00 0.00 0.00 80 1012.4
20260509135502 13 232 1.6 4.8 0.00 0.00 0.00 80 1012.4
20260509135004 13 203 1.6 4.8 0.00 0.00 0.00 80 1012.2
20260509134501 13 211 1.6 4.8 0.00 0.00 0.00 80 1012.1
20260509134001 13 218 1.6 4.8 0.00 0.00 0.00 79 1012.2
20260509133501 13 209 1.6 8.0 0.00 0.00 0.00 79 1012.1
20260509133005 13 208 1.6 8.0 0.00 0.00 0.00 79 1012.3
20260509132504 13 182 1.6 8.0 0.00 0.00 0.00 80 1012.3
20260509131958 13 156 3.2 8.0 0.00 0.00 0.00 79 1012.2
20260509131454 13 205 3.2 6.4 0.00 0.00 0.00 80 1012.2
20260509130946 13 204 3.2 8.0 0.00 0.00 0.00 80 1012.2
20260509130451 13 216 3.2 8.0 0.00 0.00 0.00 79 1012.3
20260509125950 13 168 3.2 8.0 0.00 0.00 0.00 80 1012.3
20260509125451 13 172 1.6 6.4 0.00 0.00 0.00 80 1012.2
20260509124945 13 171 1.6 4.8 0.00 0.00 0.00 80 1012.2
20260509124908 13 178 1.6 4.8 0.00 0.00 0.00 80 1012.2
20260509123945 13 180 0.0 4.8 0.00 0.00 0.00 79 1012.4
20260509123443 13 171 0.0 3.2 0.00 0.00 0.00 80 1012.3
20260509122940 13 165 0.0 3.2 0.00 0.00 0.00 79 1012.4
20260509122441 13 150 0.0 3.2 0.00 0.00 0.00 79 1012.5
20260509121940 12 0 0.0 3.2 0.00 0.00 0.00 79 1012.3
20260509121438 12 0 0.0 3.2 0.00 0.00 0.00 79 1012.4
20260509121347 12 0 0.0 6.4 0.00 0.00 0.00 80 1012.4
20260509120434 12 119 0.0 6.4 0.00 0.00 0.00 80 1012.4
20260509115939 12 96 0.0 6.4 0.00 0.00 0.00 80 1012.4
20260509115432 12 94 0.0 6.4 0.00 0.00 0.00 80 1012.4
20260509114934 12 55 0.0 3.2 0.00 0.00 0.00 81 1012.4
20260509114429 12 46 0.0 3.2 0.00 0.00 0.00 81 1012.4
20260509113929 11 43 0.0 3.2 0.00 0.00 0.00 82 1012.3
20260509113431 11 43 0.0 3.2 0.00 0.00 0.00 81 1012.3
20260509113006 11 43 0.0 3.2 0.00 0.00 0.00 81 1012.1
20260509112324 11 86 0.0 1.6 0.00 0.00 0.00 82 1012.2
20260509111429 11 86 0.0 1.6 0.00 0.00 0.00 82 1012.2
20260509110931 11 86 0.0 4.8 0.00 0.00 0.00 82 1012.4
20260509110433 11 86 0.0 4.8 0.00 0.00 0.00 82 1012.1
20260509105929 11 86 1.6 4.8 0.00 0.00 0.00 81 1012.0
20260509105429 11 86 1.6 4.8 0.00 0.00 0.00 81 1012.1
20260509104933 11 32 0.0 3.2 0.00 0.00 0.00 81 1012.0
20260509104429 11 24 0.0 1.6 0.00 0.00 0.00 81 1011.7
20260509103929 11 24 0.0 1.6 0.00 0.00 0.00 81 1011.9
20260509103429 11 24 0.0 1.6 0.00 0.00 0.00 81 1012.0
20260509103323 11 24 0.0 1.6 0.00 0.00 0.00 81 1012.0
20260509102429 11 24 0.0 3.2 0.00 0.00 0.00 81 1011.9
20260509101929 11 24 0.0 3.2 0.00 0.00 0.00 81 1012.0
20260509101433 11 19 0.0 3.2 0.00 0.00 0.00 81 1012.2
20260509100933 11 19 0.0 3.2 0.00 0.00 0.00 81 1011.9
20260509100429 11 11 0.0 3.2 0.00 0.00 0.00 81 1011.7
20260509095930 11 9 0.0 1.6 0.00 0.00 0.00 81 1011.9
20260509095859 11 0 0.0 1.6 0.00 0.00 0.00 81 1011.8
20260509094928 11 0 0.0 1.6 0.00 0.00 0.00 81 1012.0
20260509094429 11 0 0.0 1.6 0.00 0.00 0.00 81 1011.9
20260509093928 11 0 0.0 1.6 0.00 0.00 0.00 81 1012.1